This is the latest recevied weather packets stored in our database for station/object KC9NPJ-13. If no packets are shown the sender has not sent any weather packets the latest 10 day(s).
| Time | Temp. | Humidity | Pressure | Rain* | Wind** | Luminosity | Snow |
|---|---|---|---|---|---|---|---|
| 1788549016 | 35.56° C | 49% | 1014.7 hPa | 0 mm | - | - | - |
| 1788548716 | 35.56° C | 49% | 1014.7 hPa | 0 mm | - | - | - |
| 1788548415 | 36.11° C | 47% | 1014.8 hPa | 0 mm | - | - | - |
| 1788548116 | 36.11° C | 48% | 1014.8 hPa | 0 mm | - | - | - |
| 1788547816 | 36.67° C | 48% | 1014.7 hPa | 0 mm | - | - | - |
| 1788547516 | 36.11° C | 49% | 1014.9 hPa | 0 mm | - | - | - |
| 1788547216 | 36.11° C | 49% | 1014.8 hPa | 0 mm | - | - | - |
| 1788546916 | 36.11° C | 50% | 1014.9 hPa | 0 mm | - | - | - |
| 1788546616 | 36.11° C | 49% | 1015.1 hPa | 0 mm | - | - | - |
| 1788546316 | 36.11° C | 48% | 1015.1 hPa | 0 mm | - | - | - |
| 1788546016 | 36.67° C | 47% | 1015 hPa | 0 mm | - | - | - |
| 1788545716 | 36.67° C | 47% | 1015.1 hPa | 0 mm | - | - | - |
| 1788545416 | 37.78° C | 45% | 1015.2 hPa | 0 mm | - | - | - |
| 1788545116 | 37.78° C | 46% | 1015.2 hPa | 0 mm | - | - | - |
| 1788544816 | 37.22° C | 47% | 1015.3 hPa | 0 mm | - | - | - |
| 1788544516 | 37.22° C | 48% | 1015.3 hPa | 0 mm | - | - | - |
| 1788544216 | 36.67° C | 49% | 1015.3 hPa | 0 mm | - | - | - |
| 1788543916 | 36.67° C | 48% | 1015.5 hPa | 0 mm | - | - | - |
| 1788543616 | 36.67° C | 47% | 1015.6 hPa | 0 mm | - | - | - |
| 1788543316 | 36.67° C | 48% | 1015.6 hPa | 0 mm | - | - | - |
| 1788543016 | 36.67° C | 48% | 1015.6 hPa | 0 mm | - | - | - |
| 1788542716 | 36.11° C | 53% | 1015.6 hPa | 0 mm | - | - | - |
| 1788542416 | 36.67° C | 48% | 1015.6 hPa | 0 mm | - | - | - |
| 1788542116 | 36.11° C | 49% | 1015.6 hPa | 0 mm | - | - | - |
| 1788541816 | 36.11° C | 51% | 1015.7 hPa | 0 mm | - | - | - |
* Rain latest hour (hover to see other rain measurements)
** Current wind speed in m/s (hover to see current wind gust speed)